Location: Colebrook
(42.0017°N, 73.0973°W)
Time: 16:17:02
(UTC-05:00)

Vanguard 2 - Pass Details

Date: 02 November 2021
Orbit: 554 x 2936 km, 32.9° (Epoch: 04 December)

Event Time Altitude Azimuth Distance (km) Brightness Sun altitude
Rises 21:44:28 0° 219° (SW) 6,502 12.4 -44.4°
Reaches altitude 10° 21:49:05 10° 212° (SSW) 5,645 11.9 -45.2°
Enters shadow 21:56:48 28° 192° (SSW) 4,426 11.1 -46.5°
